Change the Weather History Date:

Tuesday, October 30, 2012

  Actual Average (KMWA) Record (KMWA)
Temperature  
Mean Temperature 46 °F -  
Max Temperature 55 °F 63 °F 80 °F (1971)
Min Temperature 37 °F 40 °F 22 °F (1976)
Degree Days  
Heating Degree Days 19    
Moisture  
Dew Point 27 °F    
Average Humidity 51    
Maximum Humidity 75    
Minimum Humidity 26    
Precipitation  
Precipitation 0.00 in - - ()
Sea Level Pressure  
Sea Level Pressure 29.90 in    
Wind  
Wind Speed 12 mph (NW)    
Max Wind Speed 25 mph    
Max Gust Speed 34 mph    
Visibility 10 miles    
Events      
Averages and records for this station are not official NWS values.
T = Trace of Precipitation, MM = Missing Value Source: NWS Daily Summary

Daily Weather History Graph

Daily Weather History Graph

Search for Another Location

Airport or City:

Trip Planner

Search our weather history database for the weather conditions in past years. The results will help you decide how hot, cold, wet, or windy it might be!

Date:

Astronomy

Oct. 30, 2012 Rise Set
Actual Time 7:18 AM CDT 5:57 PM CDT
Civil Twilight 6:50 AM CDT 6:24 PM CDT
Nautical Twilight 6:19 AM CDT 6:55 PM CDT
Astronomical Twilight 5:49 AM CDT 7:25 PM CDT
Moon 6:28 PM CDT (10/30) 8:03 AM CDT (10/30)
Length of Visible Light 11h 33m
Length of Day
10h 39m
Full, 99% of the Moon is Illuminated
Oct 30
Full
Nov 6
Last Quarter
Nov 13
New
Nov 20
First Quarter
Nov 28
Full

Hourly Weather History & Observations

Time (CDT) Temp. Windchill Dew Point Humidity Pressure Visibility Wind Dir Wind Speed Gust Speed Precip Events Conditions
12:15 AM 42.8 °F 37.5 °F 28.4 °F 57% 30.03 in 10.0 mi NW 9.2 mph - N/A   Clear
12:35 AM 42.8 °F 37.5 °F 28.4 °F 57% 30.03 in 10.0 mi NNW 9.2 mph - N/A   Clear
12:55 AM 42.8 °F 38.0 °F 28.4 °F 57% 30.02 in 10.0 mi NNW 8.1 mph - N/A   Clear
1:15 AM 42.8 °F 38.6 °F 28.4 °F 57% 30.01 in 10.0 mi NNW 6.9 mph - N/A   Clear
1:35 AM 42.8 °F 38.0 °F 28.4 °F 57% 30.01 in 10.0 mi NNW 8.1 mph - N/A   Clear
1:55 AM 42.8 °F 37.5 °F 28.4 °F 57% 30.00 in 10.0 mi NW 9.2 mph - N/A   Clear
2:15 AM 41.0 °F 35.8 °F 28.4 °F 61% 30.00 in 10.0 mi WNW 8.1 mph - N/A   Clear
2:35 AM 39.2 °F 33.6 °F 28.4 °F 65% 29.99 in 10.0 mi WNW 8.1 mph - N/A   Clear
2:55 AM 41.0 °F 34.7 °F 28.4 °F 61% 29.99 in 10.0 mi NW 10.4 mph - N/A   Clear
3:15 AM 41.0 °F 35.8 °F 28.4 °F 61% 29.98 in 10.0 mi NW 8.1 mph - N/A   Clear
3:35 AM 41.0 °F 35.2 °F 28.4 °F 61% 29.97 in 10.0 mi NW 9.2 mph - N/A   Clear
3:55 AM 41.0 °F 35.2 °F 28.4 °F 61% 29.97 in 10.0 mi WNW 9.2 mph - N/A   Clear
4:15 AM 39.2 °F 33.0 °F 28.4 °F 65% 29.97 in 10.0 mi WNW 9.2 mph - N/A   Clear
4:35 AM 41.0 °F 35.2 °F 28.4 °F 61% 29.96 in 10.0 mi NW 9.2 mph - N/A   Clear
4:55 AM 41.0 °F 35.2 °F 28.4 °F 61% 29.95 in 10.0 mi NW 9.2 mph - N/A   Clear
5:15 AM 41.0 °F 34.7 °F 28.4 °F 61% 29.95 in 10.0 mi NW 10.4 mph 17.3 mph N/A   Clear
5:35 AM 41.0 °F 34.3 °F 28.4 °F 61% 29.94 in 10.0 mi NW 11.5 mph 17.3 mph N/A   Clear
5:55 AM 41.0 °F 34.7 °F 28.4 °F 61% 29.94 in 10.0 mi WNW 10.4 mph - N/A   Clear
6:15 AM 39.2 °F 32.0 °F 30.2 °F 70% 29.94 in 10.0 mi WNW 11.5 mph 17.3 mph N/A   Clear
6:35 AM 41.0 °F 33.9 °F 30.2 °F 65% 29.93 in 10.0 mi WNW 12.7 mph - N/A   Clear
6:55 AM 41.0 °F 34.3 °F 28.4 °F 61% 29.93 in 10.0 mi NW 11.5 mph - N/A   Clear
7:15 AM 41.0 °F 33.5 °F 28.4 °F 61% 29.93 in 10.0 mi NW 13.8 mph 18.4 mph N/A   Clear
7:35 AM 41.0 °F 33.5 °F 28.4 °F 61% 29.93 in 10.0 mi NW 13.8 mph - N/A   Clear
7:55 AM 41.0 °F 33.9 °F 28.4 °F 61% 29.92 in 10.0 mi NW 12.7 mph 18.4 mph N/A   Clear
8:15 AM 41.0 °F 33.9 °F 30.2 °F 65% 29.92 in 10.0 mi NW 12.7 mph 18.4 mph N/A   Clear
8:35 AM 41.0 °F 32.8 °F 28.4 °F 61% 29.91 in 10.0 mi NW 16.1 mph 20.7 mph N/A   Clear
8:55 AM 42.8 °F 34.5 °F 28.4 °F 57% 29.91 in 10.0 mi NW 18.4 mph 26.5 mph N/A   Clear
9:15 AM 42.8 °F 35.4 °F 28.4 °F 57% 29.91 in 10.0 mi NW 15.0 mph 23.0 mph N/A   Clear
9:35 AM 44.6 °F 37.8 °F 28.4 °F 53% 29.90 in 10.0 mi NW 15.0 mph 31.1 mph N/A   Clear
9:55 AM 44.6 °F 36.9 °F 26.6 °F 49% 29.90 in 10.0 mi NW 18.4 mph 27.6 mph N/A   Clear
10:15 AM 44.6 °F 37.2 °F 26.6 °F 49% 29.90 in 10.0 mi NW 17.3 mph 24.2 mph N/A   Clear
10:35 AM 46.4 °F 40.7 °F 28.4 °F 50% 29.90 in 10.0 mi NW 12.7 mph 21.9 mph N/A   Clear
10:55 AM 46.4 °F 39.8 °F 26.6 °F 46% 29.90 in 10.0 mi NW 16.1 mph 29.9 mph N/A   Clear
11:15 AM 48.2 °F - 28.4 °F 46% 29.89 in 10.0 mi NW 17.3 mph 25.3 mph N/A   Clear
11:35 AM 50.0 °F - 26.6 °F 40% 29.88 in 10.0 mi NW 20.7 mph 34.5 mph N/A   Clear
11:55 AM 50.0 °F - 28.4 °F 43% 29.88 in 10.0 mi WNW 19.6 mph 29.9 mph N/A   Clear
12:15 PM 51.8 °F - 26.6 °F 38% 29.87 in 10.0 mi NW 19.6 mph 32.2 mph N/A   Clear
12:35 PM 53.6 °F - 28.4 °F 38% 29.85 in 10.0 mi NW 16.1 mph 26.5 mph N/A   Clear
12:55 PM 53.6 °F - 26.6 °F 35% 29.85 in 10.0 mi WNW 23.0 mph 32.2 mph N/A   Clear
1:15 PM 53.6 °F - 24.8 °F 33% 29.85 in 10.0 mi WNW 19.6 mph 27.6 mph N/A   Clear
1:35 PM 53.6 °F - 26.6 °F 35% 29.84 in 10.0 mi WNW 24.2 mph 29.9 mph N/A   Clear
1:55 PM 53.6 °F - 24.8 °F 33% 29.83 in 10.0 mi NW 18.4 mph 29.9 mph N/A   Clear
2:15 PM 53.6 °F - 24.8 °F 33% 29.83 in 10.0 mi NW 20.7 mph 28.8 mph N/A   Clear
2:35 PM 55.4 °F - 24.8 °F 31% 29.83 in 10.0 mi NW 17.3 mph 27.6 mph N/A   Clear
2:55 PM 55.4 °F - 23.0 °F 29% 29.83 in 10.0 mi WNW 19.6 mph 31.1 mph N/A   Clear
3:15 PM 55.4 °F - 23.0 °F 29% 29.83 in 10.0 mi NW 15.0 mph 27.6 mph N/A   Clear
3:35 PM 55.4 °F - 21.2 °F 26% 29.82 in 10.0 mi NW 25.3 mph 33.4 mph N/A   Clear
3:55 PM 55.4 °F - 23.0 °F 29% 29.83 in 10.0 mi WNW 23.0 mph 28.8 mph N/A   Clear
4:15 PM 55.4 °F - 24.8 °F 31% 29.82 in 10.0 mi NW 19.6 mph 28.8 mph N/A   Clear
4:35 PM 55.4 °F - 23.0 °F 29% 29.82 in 10.0 mi NW 19.6 mph 26.5 mph N/A   Clear
4:55 PM 55.4 °F - 26.6 °F 33% 29.83 in 10.0 mi NW 19.6 mph 26.5 mph N/A   Clear
5:15 PM 55.4 °F - 24.8 °F 31% 29.83 in 10.0 mi NW 18.4 mph 27.6 mph N/A   Clear
5:35 PM 53.6 °F - 24.8 °F 33% 29.83 in 10.0 mi NW 20.7 mph 27.6 mph N/A   Clear
5:55 PM 53.6 °F - 24.8 °F 33% 29.84 in 10.0 mi NW 15.0 mph 24.2 mph N/A   Clear
6:15 PM 51.8 °F - 24.8 °F 35% 29.85 in 10.0 mi NW 12.7 mph 21.9 mph N/A   Clear
6:35 PM 51.8 °F - 26.6 °F 38% 29.85 in 10.0 mi NW 9.2 mph - N/A   Clear
6:55 PM 50.0 °F - 26.6 °F 40% 29.86 in 10.0 mi NW 9.2 mph - N/A   Clear
7:15 PM 50.0 °F - 28.4 °F 43% 29.86 in 10.0 mi NW 8.1 mph - N/A   Clear
7:35 PM 50.0 °F - 28.4 °F 43% 29.86 in 10.0 mi NW 10.4 mph - N/A   Clear
7:55 PM 48.2 °F - 28.4 °F 46% 29.86 in 10.0 mi NW 8.1 mph - N/A   Clear
8:15 PM 46.4 °F 42.4 °F 28.4 °F 50% 29.87 in 10.0 mi NW 8.1 mph - N/A   Clear
8:35 PM 44.6 °F 40.7 °F 28.4 °F 53% 29.88 in 10.0 mi WNW 6.9 mph - N/A   Clear
8:55 PM 44.6 °F 42.2 °F 28.4 °F 53% 29.88 in 10.0 mi WNW 4.6 mph - N/A   Clear
9:15 PM 44.6 °F 40.7 °F 28.4 °F 53% 29.88 in 10.0 mi WNW 6.9 mph - N/A   Clear
9:35 PM 42.8 °F 39.3 °F 28.4 °F 57% 29.88 in 10.0 mi WNW 5.8 mph - N/A   Clear
9:55 PM 41.0 °F 37.1 °F 28.4 °F 61% 29.88 in 10.0 mi West 5.8 mph - N/A   Clear
10:15 PM 39.2 °F 35.0 °F 28.4 °F 65% 29.88 in 10.0 mi WNW 5.8 mph - N/A   Clear
10:35 PM 37.4 °F 32.8 °F 30.2 °F 75% 29.88 in 10.0 mi WNW 5.8 mph - N/A   Clear
10:55 PM 39.2 °F 35.9 °F 28.4 °F 65% 29.88 in 10.0 mi WNW 4.6 mph - N/A   Clear
11:15 PM 37.4 °F 33.8 °F 30.2 °F 75% 29.88 in 10.0 mi West 4.6 mph - N/A   Clear
11:35 PM 37.4 °F 32.8 °F 30.2 °F 75% 29.88 in 10.0 mi WNW 5.8 mph - N/A   Clear
11:55 PM 39.2 °F 35.9 °F 30.2 °F 70% 29.88 in 10.0 mi NW 4.6 mph - N/A   Clear